Location: Eaton Estates
(41.3089°N, 82.0057°W)
Time: 02:14:45
(UTC+00:00)

Cosmos 2100 Rocket - Pass Details

Date: 17 June 2021
Orbit: 955 x 1001 km, 82.9° (Epoch: 02 August)

Event Time Altitude Azimuth Distance (km) Brightness Sun altitude
Rises 02:55:55 0° 352° (N) 3,734 8.2 -16.2°
Reaches altitude 10° 02:58:28 10° 353° (N) 2,778 7.3 -16.5°
Maximum altitude 03:04:52 89° 78° (ENE) 1,000 4.0 -17.2°
Enters shadow 03:08:58 24° 174° (S) 1,938 5.1 -17.6°
